{"data":{"norad_id":63302,"epoch":"2026-05-25T03:49:49.133280Z","epoch_age_seconds":60642,"freshness":"FRESH","line1":"1 63302U 25056C   26145.15959645  .00001237  00000+0  20328-3 0  9994","line2":"2 63302  97.8985 269.9286 0003633  69.4320 290.7277 14.72324824 63744","mean_motion":14.72324824,"eccentricity":0.0003633,"inclination_deg":97.8985,"raan_deg":269.9286,"arg_perigee_deg":69.432,"mean_anomaly_deg":290.7277,"bstar":0.00020328,"rev_number":6374,"period_min":97.804504585328,"perigee_km":651.10146867738,"apogee_km":656.21076955773,"semimajor_km":7031.7931191176,"source":"CELESTRAK","updated_at":"2026-05-25T13:38:03.648073Z"}}